TimePST,TemperatureF,Dew PointF,Humidity,Sea Level PressureIn,VisibilityMPH,Wind Direction,Wind SpeedMPH,Gust SpeedMPH,PrecipitationIn,Events,Conditions,WindDirDegrees,DateUTC
12:53 AM,46.0,39.9,79,29.90,10.0,SSE,10.4,-,N/A,,Mostly Cloudy,150,2012-11-09 08:53:00
1:53 AM,45.0,39.0,80,29.91,10.0,SE,12.7,-,N/A,,Mostly Cloudy,130,2012-11-09 09:53:00
2:53 AM,45.0,39.0,80,29.91,10.0,SE,8.1,-,N/A,,Scattered Clouds,130,2012-11-09 10:53:00
3:53 AM,46.0,37.9,73,29.91,10.0,SE,6.9,-,N/A,,Overcast,130,2012-11-09 11:53:00
4:53 AM,45.0,37.9,76,29.92,10.0,ESE,6.9,-,N/A,,Overcast,120,2012-11-09 12:53:00
5:53 AM,45.0,37.9,76,29.92,10.0,ESE,5.8,-,N/A,,Overcast,120,2012-11-09 13:53:00
6:53 AM,43.0,37.9,82,29.94,10.0,Calm,Calm,-,N/A,,Partly Cloudy,0,2012-11-09 14:53:00
7:53 AM,45.0,39.9,82,29.95,10.0,SSE,3.5,-,N/A,,Scattered Clouds,160,2012-11-09 15:53:00
8:53 AM,46.9,39.9,77,29.96,10.0,South,6.9,-,N/A,,Scattered Clouds,190,2012-11-09 16:53:00
9:28 AM,46.9,41.0,80,29.95,10.0,SSE,6.9,-,N/A,,Mostly Cloudy,160,2012-11-09 17:28:00
9:53 AM,46.9,41.0,80,29.97,10.0,SSE,10.4,-,N/A,,Overcast,150,2012-11-09 17:53:00
10:36 AM,46.9,41.0,80,29.96,10.0,South,4.6,-,N/A,,Overcast,190,2012-11-09 18:36:00
10:53 AM,48.0,39.9,74,29.97,10.0,South,8.1,-,N/A,,Overcast,170,2012-11-09 18:53:00
11:35 AM,48.9,39.9,71,29.95,10.0,SSE,6.9,-,N/A,,Scattered Clouds,160,2012-11-09 19:35:00
11:53 AM,50.0,41.0,71,29.95,10.0,South,5.8,-,N/A,,Partly Cloudy,180,2012-11-09 19:53:00
12:53 PM,52.0,37.9,59,29.94,10.0,Variable,5.8,-,N/A,,Scattered Clouds,0,2012-11-09 20:53:00
1:53 PM,53.1,30.9,43,29.92,10.0,Variable,3.5,-,N/A,,Clear,0,2012-11-09 21:53:00
2:53 PM,52.0,39.0,61,29.93,10.0,ENE,8.1,-,N/A,,Clear,70,2012-11-09 22:53:00
3:53 PM,52.0,37.0,57,29.93,10.0,East,4.6,-,N/A,,Clear,90,2012-11-09 23:53:00
4:53 PM,50.0,37.9,63,29.93,10.0,East,5.8,-,N/A,,Mostly Cloudy,90,2012-11-10 00:53:00
5:53 PM,48.9,37.9,66,29.95,10.0,ESE,4.6,-,N/A,,Overcast,110,2012-11-10 01:53:00
6:53 PM,48.9,39.0,69,29.95,10.0,East,6.9,-,0.00,Rain,Light Rain,80,2012-11-10 02:53:00
7:53 PM,48.9,37.9,66,29.96,10.0,East,4.6,-,0.00,,Overcast,80,2012-11-10 03:53:00
8:53 PM,48.0,39.9,74,29.97,10.0,East,9.2,-,0.00,,Overcast,90,2012-11-10 04:53:00
9:53 PM,46.9,37.9,71,29.98,10.0,East,6.9,-,N/A,,Overcast,80,2012-11-10 05:53:00
10:53 PM,46.0,39.0,76,29.97,10.0,East,6.9,-,N/A,,Partly Cloudy,90,2012-11-10 06:53:00
11:53 PM,44.1,37.9,79,29.97,10.0,East,4.6,-,N/A,,Clear,90,2012-11-10 07:53:00